www.pogodaiklimat.ru

Погода и климат >> Архив погоды >> Россия >> Красноярский край >> Мыс Стерлегова


АРХИВ ПОГОДЫ на Мысе Стерлегова

Время (UTC), дата Ветер
(напр.,м/с)
 
Видим.   Явления Облачность Т
(С)
Тd
(С)
f
(%)
Тe
(С)
Тes
(С)
Комфортность P
(гПа)
Po
(гПа)
Тmin
(С)
Tmax
(С)
R
(мм)
R24
(мм)
S
(см)
21 14.04 СВ 3 20 км 10/0
[Ac trans Ci fib]
-30.6 -33.9 73 -40 -40 опасность
обморожения
1013.8 1012.3
00 15.04 С 4 20 км 10/0
[Ci fib]
-31.6 -35.1 71 -43 -43 опасность
обморожения
1014.4 1013.0 -32.0 16
03 15.04 СВ 4 20 км 10/0
[Ac trans Ci fib]
-27.2 -30.4 74 -38 -37 опасность
обморожения
1014.6 1013.2
06 15.04 С 5 20 км 10/0
[Ac trans Ci]
-24.0 -26.8 78 -35 -34 опасность
обморожения
1014.6 1013.2
09 15.04 С 7 20 км позёмок 10/3 300 м
[Sc Ac trans Ci fib]
-22.3 -25.0 79 -35 -34 опасность
обморожения
1015.8 1014.4
12 15.04 СВ 5 20 км {метель} 10/3 300 м
[Sc Ac trans Ci fib]
-22.7 -25.3 79 -33 -33 опасность
обморожения
1017.2 1015.8 -22.0
15 15.04 С 6 20 км позёмок 10/0
[Ac trans Ci fib]
-23.9 -26.6 78 -36 -36 опасность
обморожения
1017.4 1016.0
18 15.04 СВ 4 20 км {метель} 10/0
[Ac trans Ci fib]
-26.6 -29.6 76 -37 -37 опасность
обморожения
1018.3 1016.9
21 15.04 С 6 20 км позёмок 10/0
[Ac trans Ci fib]
-20.9 -23.4 80 -32 -32 опасность
обморожения
1018.3 1016.9
00 16.04 С 7 20 км позёмок 10/0
[Ac trans Ci fib]
-22.0 -24.6 79 -34 -34 опасность
обморожения
1019.6 1018.2 -27.2 16
03 16.04 СВ 6 20 км позёмок 4/0
[Ci fib]
-22.3 -24.9 79 -34 -33 опасность
обморожения
1020.6 1019.2
06 16.04 СВ 5 20 км {метель} 3/0
[Ci fib]
-21.4 -24.1 79 -32 -30 опасность
обморожения
1022.0 1020.6
09 16.04 С 4 20 км 10/0
[Ci fib]
-20.5 -23.0 80 -30 -28 1023.1 1021.7
12 16.04 С 2 20 км 10/0
[Ac trans Ci fib]
-21.1 -23.6 80 -27 -27 1023.6 1022.3 -20.2
15 16.04 С 2 20 км 10/0
[Ci fib]
-23.3 -25.9 79 -30 -30 1023.0 1021.6
18 16.04 СЗ 1 20 км 10/0
[Ac trans Ci fib]
-24.6 -27.4 77 -28 -28 1022.0 1020.6
21 16.04 20 км н/о -20.9 -23.3 81 -24 -24 1021.1 1019.8
00 17.04 З 3 20 км 10/0 200 м
[]
-20.4 -22.7 82 -28 -28 1020.1 1018.7 -25.9 16
03 17.04 ЮЗ 2 23 км 10/10 200 м
[St]
-20.5 -22.9 81 -26 -26 1018.9 1017.5
06 17.04 ЮЗ 3 1200 м дымка 10/10 200 м
[St]
-21.2 -23.7 80 -29 -29 1017.8 1016.5
09 17.04 ЮЗ 3 1200 м дымка 10/10 200 м
[St]
-20.9 -23.3 81 -29 -29 1017.1 1015.8
12 17.04 З 2 1200 м дымка 10/10 200 м
[St]
-20.0 -22.3 82 -26 -26 1016.5 1015.2 -20.0
15 17.04 ЮЗ 3 20 км 10/10 200 м
[St]
-19.3 -21.5 83 -27 -27 1015.7 1014.3
18 17.04 Ю 3 20 км 4/1 200 м
[St Ac trans]
-22.4 -24.8 81 -30 -30 1014.6 1013.2
21 17.04 ЮЗ 3 20 км дымка 10/10 200 м
[St]
-21.9 -24.4 80 -30 -30 1014.0 1012.6
00 18.04 Ю 3 20 км 10/10
[Sc]
-22.8 -25.4 79 -31 -31 опасность
обморожения
1013.2 1011.8 -24.9 16
03 18.04 ЮЗ 4 20 км 10/10 300 м
[Sc]
-19.8 -22.1 82 -29 -29 1012.1 1010.8
06 18.04 ЮЗ 3 20 км 10/10 300 м
[Sc]
-18.2 -20.4 83 -25 -25 1011.4 1010.0
09 18.04 ЮЗ 3 20 км 10/10 300 м
[Sc]
-18.8 -21.0 83 -26 -26 1011.4 1010.0
12 18.04 З 4 20 км 10/10 300 м
[Sc]
-17.3 -19.4 84 -26 -26 1010.9 1009.5 -17.0
15 18.04 ЮЗ 4 1000 м дымка 10/10 200 м
[St]
-20.9 -23.3 81 -30 -30 1010.7 1009.3
18 18.04 ЮЗ 3 1000 м дымка 10/10 200 м
[St]
-23.7 -26.4 78 -32 -32 опасность
обморожения
1010.0 1008.6
21 18.04 Ю 3 2000 м дымка 10/10 200 м
[St]
-25.2 -28.0 77 -34 -34 опасность
обморожения
1009.5 1008.1
00 19.04 ЮЗ 3 4000 м слаб. снег 10/0
[As op]
-24.5 -27.3 77 -33 -33 опасность
обморожения
1009.4 1008.0 -25.8 0.0 16
03 19.04 З 1 20 км {снег} 8/3 300 м
[Sc Ac trans]
-23.0 -25.6 79 -26 -25 1009.7 1008.3
06 19.04 ЮЗ 1 20 км {снег} 10/10 300 м
[Sc]
-16.4 -18.8 82 -19 -19 1010.0 1008.7
09 19.04 З 2 2000 м дымка 10/10 200 м
[St]
-17.1 -19.1 84 -22 -22 1011.0 1009.6
12 19.04 СЗ 3 20 км 10/10 300 м
[Sc]
-18.0 -20.2 83 -25 -25 1011.6 1010.2 -14.8 0.0
15 19.04 СЗ 1 20 км 4/4 600 м
[Sc]
-20.4 -22.9 80 -23 -23 1012.2 1010.8
18 19.04 З 1 1000 м дымка 10/10 200 м
[St]
-26.4 -29.4 76 -30 -30 1012.7 1011.3
21 19.04 ЮЗ 2 1000 м дымка 10/10 200 м
[St]
-29.0 -32.2 74 -36 -36 опасность
обморожения
1012.8 1011.4
00 20.04 Ю 2 1000 м дымка 10/10 200 м
[St]
-25.4 -28.3 77 -32 -32 опасность
обморожения
1012.7 1011.3 -29.7 16
03 20.04 ЮЗ 2 1000 м дымка 10/10 200 м
[St]
-21.4 -23.9 80 -27 -27 1012.8 1011.4
06 20.04 Ю 4 4000 м дымка 10/10 200 м
[St]
-21.1 -23.5 81 -30 -30 1012.4 1011.0
09 20.04 ЮВ 3 20 км 4/0
[Ac trans Ci fib]
-21.4 -24.0 79 -29 -27 1011.8 1010.4
12 20.04 ЮВ 5 20 км 3/0
[Ac trans Ci fib]
-24.3 -27.1 78 -35 -35 опасность
обморожения
1011.0 1009.6 -20.5
15 20.04 ЮВ 5 20 км 1/0
[Ci fib]
-26.6 -29.6 76 -38 -38 опасность
обморожения
1010.2 1008.8
18 20.04 ЮВ 5 20 км 3/0
[Ci fib]
-28.3 -31.5 74 -40 -40 опасность
обморожения
1008.7 1007.3
21 20.04 ЮВ 6 20 км позёмок 3/0
[Ci fib]
-28.7 -31.9 74 -42 -42 опасность
обморожения
1007.4 1006.0
00 21.04 ЮВ 7 20 км позёмок 10/0
[Ac und]
-26.2 -29.2 76 -40 -40 опасность
обморожения
1005.9 1004.5 -29.4 16
03 21.04 ЮВ 8 20 км позёмок 10/0
[Ac und]
-21.9 -24.4 80 -35 -35 опасность
обморожения
1004.9 1003.5
06 21.04 ЮВ 7
{11}
20 км позёмок 10/10 600 м
[Sc]
-18.2 -20.5 82 -29 -29 1004.1 1002.8
09 21.04 ЮВ 8-11
{13}
20 км сильный позёмок 10/9 600 м
[Sc Ac und]
-15.2 -17.7 81 -26 -26 1003.2 1001.9
12 21.04 ЮВ 10-13
{13}
4000 м слаб. ливневой снег {метель} 10/10 300 м
[Cb cap]
-16.0 -18.2 83 -28 -28 1001.8 1000.5 -15.1 0.2
15 21.04 ЮВ 10-12
{14}
4000 м слаб. ливневой снег {метель} 10/10 300 м
[Cb cap]
-16.6 -18.6 84 -29 -29 1000.2 998.9
18 21.04 Ю 10-12
{14}
1000 м ливневой снег {метель} 10/10 300 м
[Cb cap]
-16.8 -19.0 83 -29 -29 998.5 997.1

 

Местоположение метеостанции Мыс Стерлегова (Красноярский край, Россия): широта 75.41 долгота 88.90 высота над уровнем моря 11 м.

В архиве по умолчанию представлена погода на Мысе Стерлегова за последнюю неделю. Архивные данные за месяц целиком и за предыдущие месяцы, начиная с января 2011 года, Вы можете получить, выбрав интересующий диапазон дат из раскрывающегося списка и нажав кнопку "Ввод!".


*Определитесь, кто Вы:
робот инопланетянин человек

Внимание! Время в таблицах - всемирное. Для получения местного времени необходимо прибавить поправку, которая равна 7 ч.

Смотрите также архив погоды в соседних городах и на ближайших метеорологических станциях:

Погода на Островах Известий ЦИК (Красноярский край, Россия) (174 км)
Погода на Острове Русском (Красноярский край, Россия) (282 км)
Погода на Острове Уединения (Красноярский край, Россия) (290 км)
Погода на Острове Диксон (Красноярский край, Россия) (329 км)
Погода в Сопочной Карге (Красноярский край, Россия) (439 км)
Погода на Острове Голомянном (Красноярский край, Россия) (462 км)
Погода на Мысе Челюскин (Красноярский край, Россия) (472 км)
Погода в Крестах Таймырских (Красноярский край, Россия) (507 км)
Погода в Волочанке (Красноярский край, Россия) (525 км)
Погода на Мысе Баранова (Красноярский край, Россия) (528 км)

Пояснения к столбцам:

Ветер - указаны скорость ветра в м/с - средняя за 10 мин, порывы в срок и между сроками (в фигурных скобках) и направление, откуда дует ветер: С - северный, СВ - северо-восточный, В - восточный, ЮВ - юго-восточный, Ю - южный, ЮЗ - юго-западный, З - западный, СЗ - северо-западный.
Видимость - горизонтальная дальность видимости в метрах или километрах. При видимости от 1 до 10 км при отсутствии осадков обычно наблюдается дымка, при ухудшении видимости до 1 км и менее - туман. В сухую погоду видимость может ухудшаться дымом, пылью или мглою.
Явления - указаны атмосферные явления, наблюдавшиеся в срок или в последний час перед сроком; фигурными скобками обозначены явления, наблюдавшиеся между сроками (за 1-3 часа до срока); квадратными скобками обозначены град или гололедные отложения с указанием их диаметра в мм.
Облачность - указаны через наклонную черту общая и нижняя облачность в баллах и высота нижней границы облаков в метрах; квадратными скобками обозначены формы облаков: Ci - перистые, Cs - перисто-слоистые, Cc - перисто-кучевые, Ac - высококучевые, As - высокослоистые, Sc - слоисто-кучевые, Ns - слоисто-дождевые, Cu - кучевые, Cb - кучево-дождевые. Подробнее классификацию облаков см. в Атласе облаков (PDF).
T - Температура воздуха - температура, измеренная на высоте 2 м над землей.
Td - Температура точки росы - температура, при понижении до которой содержащийся в воздухе водяной пар достигнет насыщения.
f - Относительная влажность воздуха - влажноcть воздуха, измеренная на высоте 2 м над землей.
Te - Эффективная температура - температура, которую ощущает одетый по сезону человек в тени. Характеристика душности погоды. При расчете учитывается влияние влажности воздуха и скорости ветра на теплоощущения человека.
Tes - Эффективная температура на солнце - температура, которую ощущает человек, с поправкой на солнечный нагрев. Характеристика знойности погоды. Зависит от высоты солнца над горизонтом, облачности и скорости ветра. Ночью, в пасмурную погоду, а также при ветре 12 м/с и более поправка равна нулю.
P - Атмосферное давление - приведенное к уровню моря атмосферное давление.
Po - Атмосферное давление - измеренное на уровне метеостанции атмосферное давление.
Tmin - Минимальная температура - минимум температуры воздуха на высоте 2 м над землей.
Tmax - Максимальная температура - максимум температуры воздуха на высоте 2 м над землей.
R - Количество осадков - Количество выпавших осадков за период времени, мм. При наведении курсора мыши на число - период времени, за который выпало указанное количество осадков.
R24 - Количество осадков - Количество выпавших осадков за 24 часа, мм.
S - Снежный покров - Высота снежного покрова, см. При наведении курсора мыши на число - состояние снежного покрова и степень покрытия местности в баллах.